Dati Storici

Data ora Umidita' aria (%) Temperatura aria (°C) Rad globale (W/m²) Gonioanemometro (°) Tacoanemometro (m/s) Pioggia (mm)
28-06-2020 09:30 86.9 % 26.824 158.245 0.693 0 0
28-06-2020 09:20 91.2 % 26.883 33.892 -0.041 0 0
28-06-2020 09:10 93.4 % 26.472 80.993 0.82 0 0
28-06-2020 09:00 94.5 % 25.735 106.076 -0.041 0 0
28-06-2020 08:50 97.5 % 24.884 112.203 -0.039 0 0
28-06-2020 08:40 97.5 % 25.047 31.544 -0.038 0 0
28-06-2020 08:30 97.6 % 24.24 3.792 -0.03 0 0
28-06-2020 08:20 97.6 % 23.232 13.567 0.4 0 0
28-06-2020 08:10 97.7 % 23.11 7.597 0.339 0 0
28-06-2020 08:00 97.7 % 22.321 43.12 0.238 0 0
28-06-2020 07:50 97.7 % 22.259 22.077 -0.024 0 0
28-06-2020 07:40 97.7 % 21.921 13.512 1.057 0 0
28-06-2020 07:30 97.7 % 21.978 49.016 -0.024 0 0
28-06-2020 07:20 97.7 % 21.47 36.452 1.488 0 0
28-06-2020 07:10 97.7 % 21.515 354.588 0.926 0 0
28-06-2020 07:00 97.7 % 21.402 345.772 -0.018 0 0
28-06-2020 06:50 97.7 % 21.226 60.755 0.874 0 0
28-06-2020 06:40 97.7 % 21.153 24.391 2.324 0 0
28-06-2020 06:30 97.7 % 21.326 1.311 1.633 0 0
28-06-2020 06:20 97.7 % 21.457 14.31 -0.022 0 0

I dati sono presentati in modo automatico a scopo informativo. In seguito a verifica i dati possono subire modifiche o essere invalidati e non riportati negli archivi definitivi.